DW8945 Weather Reports


Display with metric or nautical units.
time (UTC)temp
F
wind
direction
speed
MPH
gust
MPH
rain 1hr
in
rain 24hr
in
rain mn
in
humidity
%
barometer
mb
20210924020355 73 105 2.0 6.0 0.00 0.00 0.00 90 1017.2
20210924015846 73 134 2.0 7.0 0.00 0.00 0.00 89 1017.3
20210924015349 73 103 1.0 5.0 0.00 0.00 0.00 89 1017.2
20210924014850 73 101 1.0 5.0 0.00 0.00 0.00 89 1017.2
20210924014352 73 185 1.0 5.0 0.00 0.00 0.00 89 1017.2
20210924013855 73 120 1.0 5.0 0.00 0.00 0.00 89 1017.2
20210924013355 73 125 1.0 8.0 0.00 0.00 0.00 89 1017.2
20210924012855 73 138 2.0 8.0 0.00 0.00 0.00 88 1017.2
20210924012358 73 117 2.0 5.0 0.00 0.00 0.00 88 1017.2
20210924011859 73 115 0.0 4.0 0.00 0.00 0.00 88 1017.2
20210924011402 73 86 1.0 5.0 0.00 0.00 0.00 88 1017.2
20210924010841 74 128 0.0 3.0 0.00 0.00 0.00 88 1017.2
20210924010339 74 159 0.0 6.0 0.00 0.00 0.00 87 1017.3
20210924005850 74 122 1.0 6.0 0.00 0.00 0.00 87 1017.2
20210924005350 74 117 1.0 5.0 0.00 0.00 0.00 87 1017.4
20210924004853 74 61 0.0 5.0 0.00 0.00 0.00 86 1017.3
20210924004354 74 76 2.0 5.0 0.00 0.00 0.00 86 1017.3
20210924003840 74 125 0.0 4.0 0.00 0.00 0.00 86 1017.4
20210924003404 74 128 0.0 6.0 0.00 0.00 0.00 86 1017.4
20210924002846 74 111 1.0 6.0 0.00 0.00 0.00 85 1017.3
20210924002352 75 106 0.0 6.0 0.00 0.00 0.00 85 1017.3
20210924001854 75 161 1.0 4.0 0.00 0.00 0.00 85 1017.2
20210924001355 75 129 1.0 4.0 0.00 0.00 0.00 85 1017.3
20210924000900 75 34 0.0 3.0 0.00 0.00 0.00 84 1017.4
20210924000357 75 31 0.0 4.0 0.00 0.00 0.00 84 1017.4
20210923235850 75 108 1.0 4.0 0.00 0.00 0.00 84 1017.4
20210923235355 75 142 1.0 5.0 0.00 0.00 0.00 84 1017.4
20210923234857 75 117 2.0 5.0 0.00 0.00 0.00 84 1017.4
20210923234400 75 305 1.0 5.0 0.00 0.00 0.00 83 1017.4
20210923233858 75 147 1.0 5.0 0.00 0.00 0.00 83 1017.4
20210923233400 75 125 1.0 3.0 0.00 0.00 0.00 83 1017.3
20210923232844 75 123 0.0 3.0 0.00 0.00 0.00 83 1017.3
20210923232348 75 117 1.0 4.0 0.00 0.00 0.00 83 1017.3
20210923231849 76 123 0.0 4.0 0.00 0.00 0.00 82 1017.2
20210923231351 76 117 2.0 5.0 0.00 0.00 0.00 82 1017.1
20210923230854 76 136 1.0 3.0 0.00 0.00 0.00 81 1017.1
20210923230346 76 115 0.0 3.0 0.00 0.00 0.00 81 1017.1
20210923225855 76 117 0.0 4.0 0.00 0.00 0.00 80 1017.0
20210923225358 76 122 2.0 4.0 0.00 0.00 0.00 80 1017.0
20210923224900 76 126 1.0 4.0 0.00 0.00 0.00 80 1017.0
20210923224341 77 106 1.0 6.0 0.00 0.00 0.00 79 1016.9
20210923223844 77 117 2.0 7.0 0.00 0.00 0.00 78 1016.8
20210923223346 77 71 2.0 6.0 0.00 0.00 0.00 77 1016.8
20210923222851 77 171 2.0 6.0 0.00 0.00 0.00 77 1016.7
20210923222356 77 130 2.0 5.0 0.00 0.00 0.00 76 1016.7
20210923221900 78 71 2.0 6.0 0.00 0.00 0.00 76 1016.8
20210923221345 78 219 1.0 6.0 0.00 0.00 0.00 75 1016.7
20210923220852 78 101 1.0 5.0 0.00 0.00 0.00 75 1016.6
20210923220350 78 115 1.0 5.0 0.00 0.00 0.00 74 1016.5
20210923215842 78 190 0.0 5.0 0.00 0.00 0.00 74 1016.3
20210923215349 78 226 0.0 5.0 0.00 0.00 0.00 74 1016.4
20210923214851 79 209 1.0 6.0 0.00 0.00 0.00 74 1016.3
20210923214339 79 258 2.0 6.0 0.00 0.00 0.00 73 1016.3
20210923213846 79 96 2.0 9.0 0.00 0.00 0.00 73 1016.3
20210923213348 79 86 2.0 8.0 0.00 0.00 0.00 72 1016.2
20210923212854 79 128 3.0 8.0 0.00 0.00 0.00 72 1016.1
20210923212340 80 92 1.0 5.0 0.00 0.00 0.00 71 1016.2
20210923211843 80 92 3.0 9.0 0.00 0.00 0.00 70 1016.1
20210923211354 80 84 3.0 9.0 0.00 0.00 0.00 69 1016.1
20210923210839 81 86 1.0 7.0 0.00 0.00 0.00 68 1016.1
20210923210345 81 269 2.0 7.0 0.00 0.00 0.00 68 1016.1
20210923205854 80 169 2.0 7.0 0.00 0.00 0.00 67 1016.0
20210923205359 80 244 1.0 6.0 0.00 0.00 0.00 67 1016.1
20210923204856 81 74 2.0 6.0 0.00 0.00 0.00 66 1016.1
20210923204358 81 97 1.0 6.0 0.00 0.00 0.00 65 1016.2
20210923203900 81 262 1.0 7.0 0.00 0.00 0.00 64 1016.1
20210923203355 81 66 3.0 7.0 0.00 0.00 0.00 63 1016.2
20210923202901 82 257 1.0 8.0 0.00 0.00 0.00 63 1016.0
20210923202345 82 111 2.0 8.0 0.00 0.00 0.00 62 1016.0
20210923201845 82 185 1.0 5.0 0.00 0.00 0.00 63 1016.1
20210923201347 82 287 2.0 10.0 0.00 0.00 0.00 63 1016.0
20210923200851 82 209 2.0 10.0 0.00 0.00 0.00 63 1016.0
20210923200348 82 112 3.0 7.0 0.00 0.00 0.00 63 1016.0
20210923195858 81 224 2.0 7.0 0.00 0.00 0.00 64 1016.0
20210923195359 81 209 3.0 8.0 0.00 0.00 0.00 64 1016.1
20210923194859 81 55 3.0 8.0 0.00 0.00 0.00 64 1016.1
20210923194342 81 223 2.0 10.0 0.00 0.00 0.00 65 1016.2
20210923193847 81 109 2.0 9.0 0.00 0.00 0.00 65 1016.1
20210923193349 81 123 4.0 9.0 0.00 0.00 0.00 64 1016.1
20210923192852 82 107 2.0 8.0 0.00 0.00 0.00 65 1016.1
20210923192356 82 217 4.0 8.0 0.00 0.00 0.00 64 1016.2
20210923191855 82 221 2.0 10.0 0.00 0.00 0.00 65 1016.1
20210923191351 82 119 1.0 10.0 0.00 0.00 0.00 66 1016.1
20210923190857 82 95 3.0 10.0 0.00 0.00 0.00 66 1016.1
20210923190352 82 107 2.0 8.0 0.00 0.00 0.00 67 1016.2
20210923185859 81 26 2.0 10.0 0.00 0.00 0.00 67 1016.2
20210923185342 82 213 3.0 10.0 0.00 0.00 0.00 67 1016.2
20210923184904 81 73 1.0 10.0 0.00 0.00 0.00 69 1016.3
20210923184401 81 249 2.0 10.0 0.00 0.00 0.00 68 1016.3
20210923183905 81 227 2.0 9.0 0.00 0.00 0.00 69 1016.4
20210923183402 81 41 2.0 8.0 0.00 0.00 0.00 69 1016.5
20210923182844 82 103 2.0 8.0 0.00 0.00 0.00 68 1016.5
20210923182348 82 117 2.0 8.0 0.00 0.00 0.00 68 1016.5
20210923181853 82 279 5.0 10.0 0.00 0.00 0.00 68 1016.5
20210923181355 82 73 2.0 10.0 0.00 0.00 0.00 68 1016.6
20210923180858 82 279 2.0 10.0 0.00 0.00 0.00 68 1016.6
20210923180353 82 147 3.0 8.0 0.00 0.00 0.00 68 1016.6
20210923175844 82 168 1.0 7.0 0.00 0.00 0.00 70 1016.8
20210923175352 81 216 1.0 11.0 0.00 0.00 0.00 70 1016.9
20210923174853 81 57 4.0 11.0 0.00 0.00 0.00 70 1016.9
20210923174355 81 194 3.0 7.0 0.00 0.00 0.00 70 1016.9
20210923173858 80 208 3.0 8.0 0.00 0.00 0.00 71 1016.9
20210923173359 80 209 2.0 8.0 0.00 0.00 0.00 72 1016.9
20210923172902 80 194 1.0 6.0 0.00 0.00 0.00 72 1017.1
20210923172346 79 312 1.0 6.0 0.00 0.00 0.00 73 1017.1
20210923171850 78 48 2.0 5.0 0.00 0.00 0.00 73 1017.1
20210923171353 78 217 1.0 5.0 0.00 0.00 0.00 75 1017.3
20210923170857 77 79 1.0 5.0 0.00 0.00 0.00 76 1017.4
20210923170351 76 107 0.0 8.0 0.00 0.00 0.00 78 1017.5
20210923165845 76 215 3.0 8.0 0.00 0.00 0.00 79 1017.7
20210923165351 76 161 2.0 8.0 0.00 0.00 0.00 79 1017.9
20210923164851 76 204 2.0 8.0 0.00 0.00 0.00 79 1017.9
20210923164356 76 102 2.0 17.0 0.00 0.00 0.00 78 1017.9
20210923163901 77 110 4.0 11.0 0.00 0.00 0.00 77 1017.8
20210923163403 79 57 6.0 11.0 0.00 0.00 0.00 74 1017.9
20210923162904 79 137 1.0 6.0 0.00 0.00 0.00 74 1017.7
20210923162344 79 211 2.0 8.0 0.00 0.00 0.00 74 1017.5
20210923161906 79 237 2.0 10.0 0.00 0.00 0.00 74 1017.5
20210923161344 79 220 2.0 10.0 0.00 0.00 0.00 74 1017.4
20210923160850 78 237 2.0 7.0 0.00 0.00 0.00 75 1017.4
20210923160402 78 227 2.0 7.0 0.00 0.00 0.00 75 1017.5
20210923155849 78 211 2.0 8.0 0.00 0.00 0.00 75 1017.5
20210923155352 79 50 1.0 8.0 0.00 0.00 0.00 76 1017.5
20210923154852 79 283 3.0 7.0 0.00 0.00 0.00 75 1017.6
20210923154356 80 224 2.0 8.0 0.00 0.00 0.00 72 1017.5
20210923153901 80 65 2.0 7.0 0.00 0.00 0.00 71 1017.4
20210923153359 80 47 3.0 9.0 0.00 0.00 0.00 71 1017.4
20210923152903 80 207 3.0 7.0 0.00 0.00 0.00 72 1017.5
20210923152404 80 119 1.0 7.0 0.00 0.00 0.00 73 1017.4
20210923151844 80 192 2.0 9.0 0.00 0.00 0.00 74 1017.4
20210923151349 79 13 3.0 10.0 0.00 0.00 0.00 73 1017.4
20210923150852 79 93 2.0 8.0 0.00 0.00 0.00 75 1017.4
20210923150347 79 71 2.0 7.0 0.00 0.00 0.00 75 1017.4
20210923145857 79 279 4.0 8.0 0.00 0.00 0.00 74 1017.4
20210923145400 79 294 4.0 10.0 0.00 0.00 0.00 74 1017.4
20210923144900 79 103 5.0 11.0 0.00 0.00 0.00 75 1017.4
20210923144357 79 44 2.0 11.0 0.00 0.00 0.00 77 1017.5
20210923143902 78 111 3.0 11.0 0.00 0.00 0.00 78 1017.5
20210923143401 78 229 1.0 5.0 0.00 0.00 0.00 80 1017.5
20210923142901 77 51 1.0 5.0 0.00 0.00 0.00 82 1017.5
20210923142401 77 126 1.0 7.0 0.00 0.00 0.00 83 1017.4
20210923141859 76 111 2.0 7.0 0.00 0.00 0.00 84 1017.5
20210923141401 76 141 1.0 5.0 0.00 0.00 0.00 84 1017.5
20210923140845 76 105 1.0 5.0 0.00 0.00 0.00 85 1017.5
20210923140342 75 217 1.0 5.0 0.00 0.00 0.00 86 1017.4
20210923135853 75 339 1.0 7.0 0.00 0.00 0.00 86 1017.4
20210923135356 75 96 2.0 7.0 0.00 0.00 0.00 86 1017.3
20210923134851 74 216 1.0 6.0 0.00 0.00 0.00 87 1017.3
20210923134352 74 210 1.0 6.0 0.00 0.00 0.00 87 1017.3
20210923133854 74 215 2.0 7.0 0.00 0.00 0.00 87 1017.3
20210923133358 74 209 3.0 7.0 0.00 0.00 0.00 86 1017.3
20210923132901 74 209 1.0 6.0 0.00 0.00 0.00 87 1017.3
20210923132343 74 171 1.0 6.0 0.00 0.00 0.00 87 1017.4
20210923131850 74 90 2.0 6.0 0.00 0.00 0.00 88 1017.4
20210923131353 74 215 1.0 7.0 0.00 0.00 0.00 88 1017.3
20210923130858 74 106 1.0 7.0 0.00 0.00 0.00 89 1017.2
20210923130353 73 95 1.0 6.0 0.00 0.00 0.00 90 1017.1
20210923125900 73 138 2.0 5.0 0.00 0.00 0.00 91 1017.1
20210923125401 72 200 2.0 4.0 0.00 0.00 0.00 91 1017.0
20210923124901 72 91 1.0 4.0 0.00 0.00 0.00 92 1017.0
20210923124401 72 105 1.0 3.0 0.00 0.00 0.00 92 1017.0
20210923123900 72 114 2.0 5.0 0.00 0.00 0.00 92 1017.0
20210923123400 71 214 1.0 5.0 0.00 0.00 0.00 93 1017.0
20210923122904 71 90 1.0 5.0 0.00 0.00 0.00 93 1017.0
20210923122403 71 122 1.0 4.0 0.00 0.00 0.00 93 1017.0
20210923121846 71 110 1.0 4.0 0.00 0.00 0.00 93 1017.1
20210923121401 71 206 0.0 5.0 0.00 0.00 0.00 94 1017.1
20210923120845 70 163 0.0 3.0 0.00 0.00 0.00 94 1017.0
20210923120359 70 167 1.0 4.0 0.00 0.00 0.00 94 1017.0
20210923115849 70 112 1.0 4.0 0.00 0.00 0.00 94 1017.1
20210923115352 70 129 1.0 4.0 0.00 0.00 0.00 94 1017.1
20210923114852 70 150 1.0 5.0 0.00 0.00 0.00 94 1017.1
20210923114354 70 128 0.0 4.0 0.00 0.00 0.00 94 1017.1
20210923113859 70 124 0.0 3.0 0.00 0.00 0.00 94 1017.1
20210923113358 70 82 1.0 3.0 0.00 0.00 0.00 95 1017.1
20210923112901 70 102 0.0 3.0 0.00 0.00 0.00 95 1017.1
20210923112404 69 78 1.0 3.0 0.00 0.00 0.00 95 1017.1
20210923111900 69 122 1.0 3.0 0.00 0.00 0.00 95 1017.1
20210923111358 69 123 0.0 3.0 0.00 0.00 0.00 95 1017.1
20210923110900 69 115 0.0 2.0 0.00 0.00 0.00 95 1017.1
20210923110355 69 144 1.0 2.0 0.00 0.00 0.00 95 1017.1
20210923105843 68 144 0.0 2.0 0.00 0.00 0.00 95 1017.0
20210923105346 68 146 1.0 2.0 0.00 0.00 0.00 95 1017.1
20210923104844 68 161 1.0 2.0 0.00 0.00 0.00 95 1017.1
20210923104359 68 82 0.0 2.0 0.00 0.00 0.00 95 1017.2
20210923103842 68 82 0.0 2.0 0.00 0.00 0.00 95 1017.2
20210923103403 68 80 0.0 3.0 0.00 0.00 0.00 95 1017.2
20210923102848 68 109 0.0 3.0 0.00 0.00 0.00 95 1017.2
20210923102352 68 111 0.0 1.0 0.00 0.00 0.00 95 1017.1
20210923101853 68 111 0.0 1.0 0.00 0.00 0.00 95 1017.1
20210923101359 68 111 0.0 2.0 0.00 0.00 0.00 95 1017.1
20210923100903 68 98 0.0 2.0 0.00 0.00 0.00 95 1017.1
20210923100341 68 341 0.0 1.0 0.00 0.00 0.00 95 1017.2
20210923095853 68 254 0.0 1.0 0.00 0.00 0.00 95 1017.2
20210923095355 68 254 0.0 2.0 0.00 0.00 0.00 95 1017.2
20210923094856 68 82 0.0 2.0 0.00 0.00 0.00 95 1017.2
20210923094401 68 236 0.0 1.0 0.00 0.00 0.00 95 1017.2
20210923093902 68 188 0.0 1.0 0.00 0.00 0.00 95 1017.1
20210923093343 68 188 0.0 2.0 0.00 0.00 0.00 95 1017.2
20210923092849 68 192 0.0 2.0 0.00 0.00 0.00 95 1017.2
20210923092354 68 145 0.0 1.0 0.00 0.00 0.00 95 1017.3
20210923091854 68 145 0.0 1.0 0.00 0.00 0.00 95 1017.3
20210923091357 68 145 0.0 1.0 0.00 0.00 0.00 95 1017.2
20210923090901 68 145 0.0 1.0 0.00 0.00 0.00 95 1017.2
20210923090357 68 141 0.0 1.0 0.00 0.00 0.00 95 1017.2
20210923085850 68 142 0.0 1.0 0.00 0.00 0.00 95 1017.2
20210923085356 68 142 0.0 1.0 0.00 0.00 0.00 95 1017.1
20210923084848 68 142 0.0 2.0 0.00 0.00 0.00 95 1017.2
20210923084352 68 142 0.0 2.0 0.00 0.00 0.00 95 1017.2
20210923083857 68 165 0.0 1.0 0.00 0.00 0.00 95 1017.2
20210923083355 68 165 0.0 2.0 0.00 0.00 0.00 95 1017.3
20210923082856 68 169 0.0 2.0 0.00 0.00 0.00 95 1017.3
20210923082400 68 171 0.0 3.0 0.00 0.00 0.00 95 1017.2
20210923081842 68 202 0.0 1.0 0.00 0.00 0.00 95 1017.2
20210923081348 68 202 0.0 1.0 0.00 0.00 0.00 95 1017.3
20210923080853 68 202 0.0 1.0 0.00 0.00 0.00 95 1017.4
20210923080349 68 202 0.0 2.0 0.00 0.00 0.00 95 1017.5
20210923075900 68 202 0.0 3.0 0.00 0.00 0.00 95 1017.4
20210923075347 68 202 0.0 3.0 0.00 0.00 0.00 95 1017.3
20210923074848 67 202 0.0 0.0 0.00 0.00 0.00 94 1017.4
20210923074353 67 202 0.0 1.0 0.00 0.00 0.00 94 1017.4
20210923073859 67 202 0.0 1.0 0.00 0.00 0.00 94 1017.4
20210923073400 67 202 0.0 0.0 0.00 0.00 0.00 94 1017.4
20210923072841 67 202 0.0 0.0 0.00 0.00 0.00 94 1017.5
20210923072349 67 202 0.0 0.0 0.00 0.00 0.00 94 1017.5
20210923071852 67 202 0.0 0.0 0.00 0.00 0.00 94 1017.6
20210923071358 67 202 0.0 0.0 0.00 0.00 0.00 94 1017.6
20210923070845 67 202 0.0 0.0 0.00 0.00 0.00 94 1017.6
20210923070343 67 202 0.0 0.0 0.00 0.00 0.00 94 1017.6
20210923065854 67 202 0.0 0.0 0.00 0.00 0.00 94 1017.6
20210923065357 67 202 0.0 0.0 0.00 0.00 0.00 94 1017.7
20210923064900 67 202 0.0 2.0 0.00 0.00 0.00 94 1017.7
20210923064348 67 202 0.0 2.0 0.00 0.00 0.00 94 1017.6
20210923063853 67 202 0.0 0.0 0.00 0.00 0.00 94 1017.6
20210923063357 67 202 0.0 0.0 0.00 0.00 0.00 94 1017.6
20210923062843 67 202 0.0 0.0 0.00 0.00 0.00 94 1017.6
20210923062349 67 202 0.0 0.0 0.00 0.00 0.00 94 1017.6
20210923061852 67 202 0.0 0.0 0.00 0.00 0.00 94 1017.7
20210923061358 67 202 0.0 0.0 0.00 0.00 0.00 94 1017.7
20210923060843 67 202 0.0 0.0 0.00 0.00 0.00 94 1017.7
20210923060344 67 202 0.0 0.0 0.00 0.00 0.00 94 1017.9
20210923055853 67 202 0.0 0.0 0.00 0.00 0.00 94 1017.9
20210923055400 67 202 0.0 0.0 0.00 0.00 0.00 94 1018.0
20210923054845 67 202 0.0 0.0 0.00 0.00 0.00 94 1018.0
20210923054352 67 202 0.0 0.0 0.00 0.00 0.00 94 1018.1
20210923053850 67 202 0.0 0.0 0.00 0.00 0.00 94 1018.0
20210923053349 67 202 0.0 0.0 0.00 0.00 0.00 94 1018.0
20210923052855 67 202 0.0 0.0 0.00 0.00 0.00 94 1018.1
20210923052359 67 202 0.0 0.0 0.00 0.00 0.00 94 1018.1
20210923051844 67 202 0.0 0.0 0.00 0.00 0.00 94 1018.2
20210923051349 68 202 0.0 0.0 0.00 0.00 0.00 94 1018.2
20210923050855 68 202 0.0 0.0 0.00 0.00 0.00 94 1018.2
20210923050355 68 202 0.0 0.0 0.00 0.00 0.00 94 1018.2
20210923045849 68 202 0.0 0.0 0.00 0.00 0.00 94 1018.2
20210923045353 68 202 0.0 0.0 0.00 0.00 0.00 94 1018.2
20210923044858 68 202 0.0 1.0 0.00 0.00 0.00 93 1018.2
20210923044345 68 202 0.0 1.0 0.00 0.00 0.00 93 1018.1
20210923043847 68 202 0.0 0.0 0.00 0.00 0.00 93 1018.1
20210923043351 68 202 0.0 0.0 0.00 0.00 0.00 94 1018.2
20210923042858 68 202 0.0 0.0 0.00 0.00 0.00 94 1018.1
20210923042343 68 202 0.0 0.0 0.00 0.00 0.00 94 1018.1
20210923041847 68 202 0.0 0.0 0.00 0.00 0.00 93 1018.2
20210923041355 68 202 0.0 0.0 0.00 0.00 0.00 93 1018.3
20210923040842 68 202 0.0 0.0 0.00 0.00 0.00 93 1018.2
20210923040353 68 202 0.0 0.0 0.00 0.00 0.00 93 1018.3
20210923035857 69 202 0.0 0.0 0.00 0.00 0.00 93 1018.4
20210923035342 69 202 0.0 0.0 0.00 0.00 0.00 93 1018.4
20210923034841 69 202 0.0 0.0 0.00 0.00 0.00 93 1018.4
20210923034349 69 202 0.0 0.0 0.00 0.00 0.00 93 1018.4
20210923033855 69 202 0.0 0.0 0.00 0.00 0.00 93 1018.5
20210923033357 69 202 0.0 0.0 0.00 0.00 0.00 93 1018.4
20210923032843 69 202 0.0 0.0 0.00 0.00 0.00 93 1018.5
20210923032349 69 202 0.0 0.0 0.00 0.00 0.00 93 1018.4
20210923031852 69 202 0.0 0.0 0.00 0.00 0.00 93 1018.4
20210923031340 69 202 0.0 0.0 0.00 0.00 0.00 93 1018.5
20210923030847 69 202 0.0 1.0 0.00 0.00 0.00 93 1018.5
20210923030347 69 202 0.0 2.0 0.00 0.00 0.00 93 1018.5
20210923025856 69 202 0.0 2.0 0.00 0.00 0.00 93 1018.4
20210923025342 70 202 0.0 1.0 0.00 0.00 0.00 93 1018.4
20210923024846 70 202 0.0 1.0 0.00 0.00 0.00 93 1018.4
20210923024350 70 202 0.0 1.0 0.00 0.00 0.00 93 1018.5
20210923023853 70 202 0.0 1.0 0.00 0.00 0.00 93 1018.5
20210923023353 70 202 0.0 1.0 0.00 0.00 0.00 92 1018.5
20210923022841 70 202 0.0 2.0 0.00 0.00 0.00 92 1018.5
20210923022348 70 202 0.0 2.0 0.00 0.00 0.00 92 1018.5
20210923021852 70 204 0.0 1.0 0.00 0.00 0.00 92 1018.5
20210923021358 70 204 0.0 1.0 0.00 0.00 0.00 92 1018.6
20210923020901 70 204 0.0 0.0 0.00 0.00 0.00 92 1018.6